DW3607 Weather Reports


Display with metric or nautical units.
time (UTC)temp
F
wind
direction
speed
MPH
gust
MPH
rain 1hr
in
rain 24hr
in
rain mn
in
humidity
%
barometer
mb
20210728103205 67 99 0.0 0.0 0.00 0.05 0.05 99 1045.5
20210728102704 67 99 0.0 0.0 0.00 0.05 0.05 99 1045.4
20210728102204 67 99 0.0 0.0 0.00 0.05 0.05 99 1045.5
20210728101705 67 99 0.0 0.0 0.00 0.05 0.05 99 1045.4
20210728101204 66 99 0.0 0.0 0.00 0.05 0.05 98 1045.4
20210728100704 67 99 0.0 0.0 0.00 0.05 0.05 98 1045.3
20210728100205 67 99 0.0 0.0 0.00 0.05 0.05 99 1045.3
20210728095704 67 99 0.0 0.0 0.00 0.05 0.05 99 1045.3
20210728095205 67 99 0.0 0.0 0.00 0.05 0.05 99 1045.1
20210728094705 67 99 0.0 0.0 0.00 0.05 0.05 99 1045.3
20210728094204 67 98 0.0 0.0 0.00 0.05 0.05 99 1045.2
20210728093705 67 9 0.0 2.0 0.00 0.05 0.05 99 1045.3
20210728093205 67 9 0.0 2.0 0.00 0.05 0.05 99 1045.4
20210728092705 66 68 0.0 0.0 0.00 0.05 0.05 99 1045.2
20210728092204 66 68 0.0 0.0 0.00 0.05 0.05 98 1045.0
20210728091705 66 68 0.0 0.0 0.00 0.05 0.05 98 1044.8
20210728091204 66 68 0.0 0.0 0.00 0.05 0.05 98 1044.8
20210728090705 66 68 0.0 0.0 0.00 0.05 0.05 98 1044.8
20210728090205 66 68 0.0 0.0 0.00 0.05 0.05 98 1044.7
20210728085704 66 68 0.0 0.0 0.00 0.05 0.05 98 1044.8
20210728085205 67 68 0.0 0.0 0.00 0.05 0.05 98 1044.8
20210728084705 67 68 0.0 0.0 0.00 0.05 0.05 98 1044.7
20210728084205 66 68 0.0 0.0 0.00 0.05 0.05 98 1044.9
20210728083705 66 68 0.0 0.0 0.00 0.05 0.05 98 1044.8
20210728083204 66 68 0.0 0.0 0.00 0.05 0.05 98 1044.8
20210728082705 66 68 0.0 0.0 0.00 0.05 0.05 98 1044.7
20210728082205 66 68 0.0 0.0 0.02 0.05 0.05 98 1044.6
20210728081705 66 68 0.0 0.0 0.04 0.05 0.05 98 1044.6
20210728081205 66 68 0.0 0.0 0.04 0.05 0.05 98 1044.5
20210728080704 66 68 0.0 0.0 0.04 0.05 0.05 98 1044.6
20210728080205 66 68 0.0 0.0 0.05 0.05 0.05 98 1044.6
20210728075705 66 68 0.0 0.0 0.05 0.05 0.05 98 1044.7
20210728075205 66 68 0.0 0.0 0.05 0.05 0.05 98 1044.7
20210728074705 66 68 0.0 0.0 0.05 0.05 0.05 98 1044.7
20210728074204 66 68 0.0 0.0 0.05 0.05 0.05 98 1044.7
20210728073705 66 68 0.0 0.0 0.05 0.05 0.05 98 1044.8
20210728073205 66 68 0.0 0.0 0.05 0.05 0.05 98 1044.8
20210728072704 66 68 0.0 0.0 0.05 0.05 0.05 98 1044.7
20210728072204 66 308 0.0 0.0 0.03 0.03 0.03 98 1044.9
20210728071704 66 308 0.0 0.0 0.01 0.01 0.01 98 1045.1
20210728071205 66 308 0.0 0.0 0.01 0.01 0.01 98 1045.1
20210728070705 66 308 0.0 0.0 0.01 0.01 0.01 98 1045.1
20210728070204 65 308 0.0 0.0 0.00 0.00 0.00 99 1045.1
20210728065705 65 308 0.0 0.0 0.00 0.00 0.00 98 1044.9
20210728065205 65 308 0.0 0.0 0.00 0.00 0.00 98 1044.7
20210728064705 65 308 0.0 0.0 0.00 0.00 0.00 98 1044.7
20210728064205 65 308 0.0 0.0 0.00 0.00 0.00 98 1044.7
20210728063704 64 308 0.0 0.0 0.00 0.00 0.00 98 1044.7
20210728063204 64 308 0.0 0.0 0.00 0.00 0.00 98 1044.7
20210728062704 64 308 0.0 0.0 0.00 0.00 0.00 97 1044.8
20210728062205 64 308 0.0 0.0 0.00 0.00 0.00 97 1044.8
20210728061705 64 308 0.0 0.0 0.00 0.00 0.00 97 1044.8
20210728061205 65 308 0.0 0.0 0.00 0.00 0.00 97 1044.7
20210728060704 65 308 0.0 0.0 0.00 0.00 0.00 97 1044.7
20210728060204 65 308 0.0 0.0 0.00 0.00 0.00 97 1044.7
20210728055705 65 308 0.0 0.0 0.00 0.00 0.00 97 1044.8
20210728055205 66 308 0.0 0.0 0.00 0.00 0.00 97 1045.0
20210728054704 66 308 0.0 0.0 0.00 0.00 0.00 97 1045.0
20210728054204 66 308 0.0 0.0 0.00 0.00 0.00 97 1045.0
20210728053705 66 308 0.0 0.0 0.00 0.00 0.00 97 1045.0
20210728053205 66 308 0.0 0.0 0.00 0.00 0.00 97 1045.0
20210728052705 67 308 0.0 0.0 0.00 0.00 0.00 97 1045.1
20210728052205 67 308 0.0 0.0 0.00 0.00 0.00 97 1045.1
20210728051704 67 308 0.0 0.0 0.00 0.00 0.00 97 1045.0
20210728051204 67 308 0.0 0.0 0.00 0.00 0.00 97 1045.1
20210728050705 67 308 0.0 0.0 0.00 0.00 0.00 97 1045.1
20210728050205 67 308 0.0 0.0 0.00 0.00 0.00 98 1045.0
20210728045704 67 308 0.0 0.0 0.00 0.00 0.00 98 1045.0
20210728045204 67 308 0.0 0.0 0.00 0.00 0.00 98 1045.1
20210728044705 67 308 0.0 0.0 0.00 0.00 0.00 97 1045.1
20210728044204 67 308 0.0 0.0 0.00 0.00 0.00 97 1045.0
20210728043704 67 308 0.0 0.0 0.00 0.00 0.00 98 1045.0
20210728043204 67 308 0.0 0.0 0.00 0.00 0.00 97 1045.0
20210728042704 66 308 0.0 0.0 0.00 0.00 0.00 97 1045.1
20210728042205 66 308 0.0 0.0 0.00 0.00 0.00 97 1045.1
20210728041705 66 308 0.0 0.0 0.00 0.00 0.00 97 1045.1
20210728041204 66 308 0.0 0.0 0.00 0.00 0.00 97 1045.1
20210728040705 66 308 0.0 0.0 0.00 0.00 0.00 97 1045.0
20210728040205 66 308 0.0 0.0 0.00 0.00 0.00 97 1045.0
20210728035704 65 308 0.0 0.0 0.00 0.00 0.00 97 1045.1
20210728035205 65 308 0.0 0.0 0.00 0.00 0.00 97 1045.0
20210728034705 65 308 0.0 0.0 0.00 0.00 0.00 96 1045.0
20210728034204 65 308 0.0 0.0 0.00 0.00 0.00 96 1045.0
20210728033704 65 308 0.0 0.0 0.00 0.00 0.00 96 1044.9
20210728033205 65 308 0.0 0.0 0.00 0.00 0.00 96 1044.9
20210728032705 65 308 0.0 0.0 0.00 0.00 0.00 96 1044.9
20210728032204 66 308 0.0 0.0 0.00 0.00 0.00 96 1045.0
20210728031705 66 308 0.0 0.0 0.00 0.00 0.00 96 1045.0
20210728031204 66 308 0.0 0.0 0.00 0.00 0.00 96 1045.0
20210728030705 66 308 0.0 0.0 0.00 0.00 0.00 96 1044.9
20210728030205 66 308 0.0 0.0 0.00 0.00 0.00 95 1044.8
20210728025705 66 308 0.0 0.0 0.00 0.00 0.00 95 1044.8
20210728025204 66 308 0.0 0.0 0.00 0.00 0.00 95 1044.8
20210728024704 66 308 0.0 0.0 0.00 0.00 0.00 95 1044.7
20210728024205 66 308 0.0 0.0 0.00 0.00 0.00 95 1044.6
20210728023705 67 308 0.0 0.0 0.00 0.00 0.00 94 1044.6
20210728023205 67 308 0.0 0.0 0.00 0.00 0.00 94 1044.5
20210728022704 67 308 0.0 0.0 0.00 0.00 0.00 94 1044.6
20210728022205 67 308 0.0 0.0 0.00 0.00 0.00 94 1044.5
20210728021705 68 308 0.0 0.0 0.00 0.00 0.00 94 1044.5
20210728021205 68 308 0.0 0.0 0.00 0.00 0.00 94 1044.5
20210728020704 68 308 0.0 0.0 0.00 0.00 0.00 94 1044.5
20210728020204 68 308 0.0 0.0 0.00 0.00 0.00 93 1044.5
20210728015704 69 308 0.0 0.0 0.00 0.00 0.00 93 1044.5
20210728015204 69 308 0.0 0.0 0.00 0.00 0.00 93 1044.4
20210728014704 69 308 0.0 0.0 0.00 0.00 0.00 92 1044.4
20210728014205 69 308 0.0 0.0 0.00 0.00 0.00 92 1044.3
20210728013704 70 308 0.0 0.0 0.00 0.00 0.00 92 1044.3
20210728013204 70 308 0.0 0.0 0.00 0.00 0.00 92 1044.3
20210728012704 70 308 0.0 0.0 0.00 0.00 0.00 91 1044.3
20210728012205 71 308 0.0 0.0 0.00 0.00 0.00 91 1044.3
20210728011705 71 308 0.0 0.0 0.00 0.00 0.00 90 1044.2
20210728011204 72 308 0.0 0.0 0.00 0.00 0.00 90 1044.2
20210728010705 72 308 0.0 0.0 0.00 0.00 0.00 89 1044.1
20210728010204 73 308 0.0 0.0 0.00 0.00 0.00 88 1044.0
20210728005704 73 308 0.0 0.0 0.00 0.00 0.00 87 1044.0
20210728005205 74 308 0.0 0.0 0.00 0.00 0.00 86 1044.0
20210728004704 74 308 0.0 0.0 0.00 0.00 0.00 85 1043.9
20210728004204 75 308 0.0 0.0 0.00 0.00 0.00 84 1043.9
20210728003704 76 308 0.0 0.0 0.00 0.00 0.00 83 1043.9
20210728003204 77 308 0.0 0.0 0.00 0.00 0.00 82 1043.9
20210728002705 77 308 0.0 0.0 0.00 0.00 0.00 80 1043.9
20210728002204 77 308 0.0 0.0 0.00 0.00 0.00 78 1043.8
20210728001704 78 308 0.0 0.0 0.00 0.00 0.00 77 1043.9
20210728001204 78 307 0.0 0.0 0.00 0.00 0.00 77 1043.8
20210728000705 79 307 0.0 0.0 0.00 0.00 0.00 76 1043.7
20210728000204 79 307 0.0 0.0 0.00 0.00 0.00 76 1043.7
20210727235704 80 307 0.0 0.0 0.00 0.00 0.00 75 1043.6
20210727235205 80 307 0.0 0.0 0.00 0.00 0.00 73 1043.6
20210727234705 81 307 0.0 0.0 0.00 0.00 0.00 74 1043.6
20210727234204 81 307 0.0 0.0 0.00 0.00 0.00 72 1043.7
20210727233704 81 307 0.0 0.0 0.00 0.00 0.00 70 1043.6
20210727233205 81 307 0.0 2.0 0.00 0.00 0.00 70 1043.7
20210727232704 82 307 0.0 3.0 0.00 0.00 0.00 68 1043.8
20210727232204 82 253 0.0 3.0 0.00 0.00 0.00 68 1043.8
20210727231705 82 259 0.0 6.0 0.00 0.00 0.00 68 1043.7
20210727231204 83 293 1.0 6.0 0.00 0.00 0.00 67 1043.7
20210727230704 83 268 0.0 3.0 0.00 0.00 0.00 67 1043.7
20210727230204 83 234 0.0 3.0 0.00 0.00 0.00 67 1043.8
20210727225705 83 250 0.0 7.0 0.00 0.00 0.00 67 1043.8
20210727225205 83 233 1.0 7.0 0.00 0.00 0.00 66 1043.8
20210727224705 83 259 1.0 7.0 0.00 0.00 0.00 66 1043.8
20210727224204 84 273 1.0 7.0 0.00 0.00 0.00 65 1043.9
20210727223705 84 273 1.0 7.0 0.00 0.00 0.00 65 1043.9
20210727223204 84 282 2.0 7.0 0.00 0.00 0.00 65 1043.9
20210727222705 84 251 2.0 8.0 0.00 0.00 0.00 65 1043.8
20210727222204 84 292 2.0 8.0 0.00 0.00 0.00 65 1043.8
20210727221704 84 259 0.0 10.0 0.00 0.00 0.00 67 1043.8
20210727221204 84 217 0.0 10.0 0.00 0.00 0.00 68 1043.7
20210727220704 84 285 1.0 10.0 0.00 0.00 0.00 67 1043.8
20210727220204 84 272 0.0 7.0 0.00 0.00 0.00 66 1043.9
20210727215704 84 238 1.0 8.0 0.00 0.00 0.00 66 1044.0
20210727215204 84 246 2.0 9.0 0.00 0.00 0.00 66 1044.0
20210727214704 84 265 2.0 9.0 0.00 0.00 0.00 67 1044.1
20210727214205 84 210 2.0 9.0 0.00 0.00 0.00 68 1044.1
20210727213705 84 233 1.0 7.0 0.00 0.00 0.00 68 1044.1
20210727213204 84 6 1.0 7.0 0.00 0.00 0.00 68 1044.2
20210727212704 84 288 0.0 5.0 0.00 0.00 0.00 69 1044.3
20210727212204 83 279 2.0 5.0 0.00 0.00 0.00 69 1044.3
20210727211704 83 333 0.0 5.0 0.00 0.00 0.00 69 1044.3
20210727211204 83 308 2.0 6.0 0.00 0.00 0.00 67 1044.3
20210727210705 84 307 1.0 10.0 0.00 0.00 0.00 67 1044.3
20210727210205 84 15 1.0 10.0 0.00 0.00 0.00 68 1044.2
20210727205704 84 308 1.0 7.0 0.00 0.00 0.00 67 1044.1
20210727205204 84 287 1.0 7.0 0.00 0.00 0.00 66 1044.0
20210727204704 84 317 1.0 8.0 0.00 0.00 0.00 68 1044.1
20210727204205 84 288 1.0 8.0 0.00 0.00 0.00 67 1044.2
20210727203705 84 350 1.0 8.0 0.00 0.00 0.00 65 1044.2
20210727203204 85 308 1.0 8.0 0.00 0.00 0.00 65 1044.3
20210727202705 85 304 3.0 8.0 0.00 0.00 0.00 64 1044.3
20210727202204 86 351 2.0 8.0 0.00 0.00 0.00 64 1044.3
20210727201704 86 310 0.0 8.0 0.00 0.00 0.00 64 1044.2
20210727201205 85 275 1.0 8.0 0.00 0.00 0.00 64 1044.2
20210727200707 85 300 1.0 12.0 0.00 0.00 0.00 65 1044.3
20210727200204 85 352 2.0 12.0 0.00 0.00 0.00 64 1044.6
20210727195704 85 295 2.0 9.0 0.00 0.00 0.00 63 1044.5
20210727195204 85 315 2.0 9.0 0.00 0.00 0.00 63 1044.6
20210727194705 86 278 1.0 10.0 0.00 0.00 0.00 62 1044.4
20210727194205 87 291 3.0 10.0 0.00 0.00 0.00 60 1044.5
20210727193704 87 275 1.0 9.0 0.00 0.00 0.00 61 1044.4
20210727193206 87 311 2.0 9.0 0.00 0.00 0.00 61 1044.5
20210727192705 87 271 1.0 8.0 0.00 0.00 0.00 58 1044.6
20210727192204 87 298 1.0 10.0 0.00 0.00 0.00 60 1044.6
20210727191704 87 314 2.0 10.0 0.00 0.00 0.00 58 1044.6
20210727191204 87 295 2.0 10.0 0.00 0.00 0.00 56 1044.6
20210727190704 88 293 1.0 8.0 0.00 0.00 0.00 57 1044.4
20210727190204 88 284 2.0 10.0 0.00 0.00 0.00 58 1044.5
20210727185704 88 244 2.0 10.0 0.00 0.00 0.00 58 1044.6
20210727185204 88 300 3.0 12.0 0.00 0.00 0.00 56 1044.6
20210727184704 88 292 4.0 12.0 0.00 0.00 0.00 54 1044.6
20210727184204 87 254 2.0 12.0 0.00 0.00 0.00 55 1044.5
20210727183705 87 299 3.0 12.0 0.00 0.00 0.00 55 1044.5
20210727183205 87 277 2.0 10.0 0.00 0.00 0.00 55 1044.5
20210727182705 87 266 1.0 9.0 0.00 0.00 0.00 58 1044.5
20210727182204 86 261 2.0 8.0 0.00 0.00 0.00 56 1044.6
20210727181704 86 293 1.0 6.0 0.00 0.00 0.00 58 1044.5
20210727181204 85 256 0.0 3.0 0.00 0.00 0.00 59 1044.6
20210727180704 85 225 1.0 7.0 0.00 0.00 0.00 58 1044.6
20210727180204 85 292 0.0 7.0 0.00 0.00 0.00 55 1044.6
20210727175705 85 261 0.0 6.0 0.00 0.00 0.00 62 1044.6
20210727175205 85 230 0.0 8.0 0.00 0.00 0.00 56 1044.4
20210727174704 86 266 2.0 8.0 0.00 0.00 0.00 53 1044.5
20210727174204 86 234 0.0 8.0 0.00 0.00 0.00 55 1044.4
20210727173704 86 213 1.0 9.0 0.00 0.00 0.00 55 1044.4
20210727173204 86 237 2.0 9.0 0.00 0.00 0.00 52 1044.5
20210727172704 86 192 3.0 9.0 0.00 0.00 0.00 54 1044.4
20210727172204 87 203 1.0 9.0 0.00 0.00 0.00 52 1044.3
20210727171704 87 232 2.0 8.0 0.00 0.00 0.00 58 1044.2
20210727171204 86 194 2.0 9.0 0.00 0.00 0.00 58 1044.3
20210727170704 86 212 1.0 9.0 0.00 0.00 0.00 56 1044.4
20210727170204 86 215 2.0 9.0 0.00 0.00 0.00 56 1044.3
20210727165704 86 205 2.0 10.0 0.00 0.00 0.00 57 1044.2
20210727165204 86 276 2.0 10.0 0.00 0.00 0.00 54 1044.3
20210727164706 86 253 3.0 10.0 0.00 0.00 0.00 57 1044.3
20210727164204 86 289 1.0 9.0 0.00 0.00 0.00 57 1044.4
20210727163704 86 259 2.0 10.0 0.00 0.00 0.00 57 1044.6
20210727163204 86 278 3.0 10.0 0.00 0.00 0.00 56 1044.7
20210727162704 86 257 1.0 8.0 0.00 0.00 0.00 58 1044.8
20210727162204 86 257 2.0 9.0 0.00 0.00 0.00 57 1044.9
20210727161704 86 231 1.0 9.0 0.00 0.00 0.00 58 1044.8
20210727161204 85 258 4.0 9.0 0.00 0.00 0.00 57 1044.9
20210727160704 85 221 1.0 12.0 0.00 0.00 0.00 60 1044.8
20210727160204 85 273 2.0 12.0 0.00 0.00 0.00 60 1044.9
20210727155705 85 259 3.0 12.0 0.00 0.00 0.00 61 1044.9
20210727155204 85 253 3.0 12.0 0.00 0.00 0.00 59 1044.9
20210727154704 85 267 3.0 8.0 0.00 0.00 0.00 59 1045.0
20210727154205 85 266 3.0 8.0 0.00 0.00 0.00 59 1045.0
20210727153705 85 261 1.0 8.0 0.00 0.00 0.00 60 1045.0
20210727153204 85 296 2.0 9.0 0.00 0.00 0.00 60 1044.8
20210727152704 85 302 2.0 9.0 0.00 0.00 0.00 62 1044.9
20210727152204 85 300 1.0 6.0 0.00 0.00 0.00 61 1044.8
20210727151704 85 275 1.0 6.0 0.00 0.00 0.00 62 1044.7
20210727151204 85 282 1.0 6.0 0.00 0.00 0.00 62 1044.7
20210727150704 85 287 0.0 3.0 0.00 0.00 0.00 66 1044.7
20210727150204 85 201 0.0 0.0 0.00 0.00 0.00 67 1044.7
20210727145704 84 213 0.0 3.0 0.00 0.00 0.00 67 1044.6
20210727145205 84 213 0.0 3.0 0.00 0.00 0.00 68 1044.6
20210727144704 84 206 0.0 2.0 0.00 0.00 0.00 70 1044.7
20210727144204 83 211 0.0 0.0 0.00 0.00 0.00 72 1044.8
20210727143704 83 184 0.0 3.0 0.00 0.00 0.00 72 1045.0
20210727143204 82 175 0.0 3.0 0.00 0.00 0.00 70 1045.0
20210727142704 81 206 1.0 3.0 0.00 0.00 0.00 73 1045.1
20210727142204 81 171 0.0 0.0 0.00 0.00 0.00 77 1045.2
20210727141704 80 169 0.0 0.0 0.00 0.00 0.00 79 1045.2
20210727141204 79 168 0.0 0.0 0.00 0.00 0.00 79 1045.3
20210727140705 78 168 0.0 0.0 0.00 0.00 0.00 82 1045.2
20210727140204 76 186 0.0 0.0 0.00 0.00 0.00 88 1045.1
20210727135704 75 190 0.0 0.0 0.00 0.00 0.00 92 1045.2
20210727135204 73 190 0.0 0.0 0.00 0.00 0.00 94 1045.4
20210727134704 72 190 0.0 0.0 0.00 0.00 0.00 96 1045.5
20210727134204 71 190 0.0 0.0 0.00 0.00 0.00 97 1045.4
20210727133704 71 190 0.0 0.0 0.00 0.00 0.00 98 1045.4
20210727133204 70 190 0.0 0.0 0.00 0.00 0.00 99 1045.4
20210727132704 69 190 0.0 0.0 0.00 0.00 0.00 99 1045.4
20210727132204 69 190 0.0 0.0 0.00 0.00 0.00 99 1045.5
20210727131704 68 190 0.0 0.0 0.00 0.00 0.00 99 1045.5
20210727131204 68 190 0.0 0.0 0.00 0.00 0.00 99 1045.5
20210727130704 67 190 0.0 0.0 0.00 0.00 0.00 99 1045.5
20210727130204 67 190 0.0 0.0 0.00 0.00 0.00 99 1045.5
20210727125704 66 190 0.0 0.0 0.00 0.00 0.00 99 1045.6
20210727125204 66 190 0.0 0.0 0.00 0.00 0.00 99 1045.6
20210727124704 66 190 0.0 0.0 0.00 0.00 0.00 99 1045.6
20210727124204 65 190 0.0 0.0 0.00 0.00 0.00 99 1045.6
20210727123704 65 190 0.0 0.0 0.00 0.00 0.00 99 1045.6
20210727123204 65 190 0.0 0.0 0.00 0.00 0.00 99 1045.5
20210727122704 64 264 0.0 0.0 0.00 0.00 0.00 99 1045.5
20210727122203 64 310 0.0 0.0 0.00 0.00 0.00 99 1045.3
20210727121704 64 346 0.0 0.0 0.00 0.00 0.00 99 1045.2
20210727121205 63 346 0.0 0.0 0.00 0.00 0.00 99 1045.1
20210727120704 63 346 0.0 0.0 0.00 0.00 0.00 99 1045.0
20210727120204 62 346 0.0 0.0 0.00 0.00 0.00 99 1045.0
20210727115704 62 346 0.0 0.0 0.00 0.00 0.00 99 1045.0
20210727115204 61 346 0.0 0.0 0.00 0.00 0.00 99 1045.1
20210727114704 61 346 0.0 0.0 0.00 0.00 0.00 99 1044.9
20210727114204 61 346 0.0 0.0 0.00 0.00 0.00 99 1044.9
20210727113704 60 346 0.0 0.0 0.00 0.00 0.00 99 1044.9
20210727113204 60 346 0.0 0.0 0.00 0.00 0.00 99 1044.9
20210727112704 60 346 0.0 0.0 0.00 0.00 0.00 99 1044.9
20210727112204 60 346 0.0 0.0 0.00 0.00 0.00 99 1045.0
20210727111704 60 346 0.0 0.0 0.00 0.00 0.00 99 1045.1
20210727111204 60 346 0.0 0.0 0.00 0.00 0.00 99 1045.1
20210727110704 59 346 0.0 0.0 0.00 0.00 0.00 99 1045.1
20210727110204 59 346 0.0 0.0 0.00 0.00 0.00 98 1045.0
20210727105705 59 346 0.0 0.0 0.00 0.00 0.00 98 1044.9
20210727105204 59 346 0.0 0.0 0.00 0.00 0.00 98 1044.9
20210727104704 59 346 0.0 0.0 0.00 0.00 0.00 98 1044.8
20210727104203 59 346 0.0 0.0 0.00 0.00 0.00 99 1044.8
20210727103704 59 346 0.0 0.0 0.00 0.00 0.00 98 1044.8